Flag for U.S.A. Weather past 2 weeks in Pensacola, Florida, U.S.A.

Now
83 °F

Sunny.


Feels Like: 89 °F
Forecast: 73 / 90 °F
Wind: 8 mph from Southwest

Location: Pensacola Regional Airport

Current Time: Sep 2, 2014 at 7:10:45 PM

Latest Report: Sep 2, 2014 at 5:53 PM


Visibility: 10 mi

Pressure: 29.99 "Hg

Humidity: 72%

Dew point: 73 °F

Location of PensacolaLocation

Historic Weather in Pensacola — Graph

°F

Pensacola temperature yesterday

Maximum temperature yesterday: 89 °F (at 12:53 PM)
Minimum temperature yesterday: 76 °F (at 4:53 AM)
Average temperature yesterday: 82 °F

Past Weeks' High & Low Weather Summary

 TemperatureHumidityPressure
High97 °F (Aug 23, 2:53 PM)100% (Sep 1, 6:53 AM)30.15 "Hg (Sep 1, 6:53 AM)
Low70 °F (Aug 20, 1:53 AM)39% (Aug 23, 2:53 PM)29.81 "Hg (Aug 24, 4:53 PM)
Average82 °F74%30.01 "Hg
* Reported Aug 18 5:53 PM — Sep 2 5:53 PM, Pensacola, Weather by CustomWeather, © 2014

Note: Actual official high and low records may vary slightly from our data, if they occured in-between our weather recording intervals... More about our weather records

Advertising

Pensacola weather history for previous 24 hours

 ConditionsComfort  
Time TempWeatherWind HumidityBarometerVisibility
5:53 PM
Sep 2
83 °FSunny.8 mph72%29.99 "Hg10 mi
4:53 PM84 °FSunny.8 mph70%30.00 "Hg10 mi
3:53 PM85 °FSunny.9 mph68%30.01 "Hg10 mi
2:53 PM84 °FSunny.12 mph67%30.03 "Hg10 mi
1:53 PM88 °FScattered clouds.9 mph55%30.05 "Hg10 mi
12:53 PM90 °FScattered clouds.10 mph56%30.07 "Hg10 mi
11:53 AM88 °FScattered clouds.10 mph61%30.09 "Hg10 mi
10:53 AM87 °FScattered clouds.7 mph63%30.09 "Hg10 mi
9:53 AM87 °FScattered clouds.8 mph63%30.09 "Hg10 mi
8:53 AM83 °FPassing clouds.5 mph72%30.09 "Hg10 mi
7:53 AM82 °FPassing clouds.No wind79%30.09 "Hg10 mi
6:53 AM76 °FSunny.No wind94%30.07 "Hg10 mi
5:53 AM76 °FClear.No wind94%30.04 "Hg10 mi
4:53 AM76 °FClear.No wind94%30.04 "Hg10 mi
3:53 AM79 °FClear.5 mph84%30.03 "Hg10 mi
2:53 AM79 °FClear.7 mph84%30.02 "Hg10 mi
1:53 AM80 °FPassing clouds.9 mph85%30.03 "Hg10 mi
12:53 AM80 °FClear.7 mph85%30.04 "Hg10 mi
11:53 PM
Sep 1
80 °FPassing clouds.7 mph87%30.06 "Hg10 mi
10:53 PM80 °FClear.6 mph85%30.07 "Hg10 mi
9:53 PM81 °FPassing clouds.7 mph82%30.08 "Hg10 mi
8:53 PM81 °FClear.8 mph79%30.08 "Hg10 mi
7:53 PM82 °FPassing clouds.8 mph77%30.06 "Hg10 mi
Weather by CustomWeather, © 2014

See weather overviewHow to use our weather pages